Preview of NWS' New Version of Forecast
This preview is not operational and should not be used for support decisions.
Latest weather observations around

Fort Myers, Page Field (KFMY)

Using English Units (Switch to International System of Units)
Date/ Time (EDT) Wind (mph) Vis. (mi) Weather Sky Cond. Temp (°F) Rel. Humidity Wind Chill (°F) Heat Index (°F) Pressure Precip. (in)
Air Dwpt 6 hour Altimeter (inHg) Sea level (inHg) 1 hr 3 hr 6 hr
Max Min
Aug 26 00:53 E 6 10 Clear CLR 80 77     90%   86 29.95 29.96      
Aug 25 23:53 Calm 10 Clear CLR 82 76     82%   89 29.94 29.95      
Aug 25 22:53 SSE 3 10 Clear CLR 82 76     82%   89 29.94 29.95      
Aug 25 21:53 SSW 3 10 Clear CLR 83 76     79%   91 29.94 29.94      
Aug 25 20:53 Calm 10 Clear CLR 83 75     77%   90 29.92 29.92      
Aug 25 19:53 SSE 6 10 Clear CLR 84 75     74%   92 29.9 29.91      
Aug 25 18:53 S 5 10 Clear CLR 86 77     75%   97 29.89 29.89      
Aug 25 17:53 S 8 10 Clear CLR 88 77     70%   100 29.89 29.89      
Aug 25 16:53 SSE 3 10 Clear CLR 88 78     73%   102 29.88 29.89      
Aug 25 16:24 WSW 3 10 Mostly Cloudy FEW037 SCT055 BKN075 88 77     70%   100 29.89        
Aug 25 16:17 Calm 10 Mostly Cloudy SCT055 SCT070 BKN085 87 77     72%   99 29.89        
Aug 25 16:02 SSW 8 10 Thunderstorms SCT050 87 77     72%   99 29.9        
Aug 25 15:53 S 3 10 Mostly Clear FEW100 88 78     73%   102 29.9 29.9      
Aug 25 15:33 5 10 Mostly Clear FEW100 88 79     75%   103 29.91        
Aug 25 15:10 SSE 6 10 Thunderstorms SCT046 88 79     75%   103 29.92        
Aug 25 14:53 NE 7 10 Partly Cloudy SCT047 91 74     57%   101 29.92 29.93      
Aug 25 13:53 N 5 10 Mostly Cloudy BKN042 90 73     58%   98 29.93 29.93      
Aug 25 12:53 N 9 10 Mostly Cloudy BKN034 93 76     58%   106 29.94 29.94      
Aug 25 12:00 NNW 5 10 Partly Cloudy FEW026 SCT036 90 78     68%   105 29.94        
Aug 25 11:53 NNE 5 10 Mostly Cloudy BKN020 89 77     68%   102 29.94 29.95      
Aug 25 10:53 Calm 10 Mostly Cloudy BKN020 86 77     75%   97 29.95 29.96      
Aug 25 09:53 Calm 10 Mostly Clear FEW040 85 77     77%   95 29.95 29.95      
Aug 25 08:53 NE 6 10 Partly Cloudy FEW012 SCT014 82 77     85%   90 29.94 29.94      
Aug 25 07:53 ENE 6 10 Partly Cloudy FEW012 SCT014 79 76     90%   83 29.93 29.93      
Aug 25 07:30 Calm 10 Partly Cloudy SCT014 78 76     93%   80 29.92        
Aug 25 06:53 ENE 3 10 Mostly Cloudy BKN013 78 76     93%   80 29.91 29.91      
Aug 25 06:48 ENE 3 10 Mostly Cloudy BKN013 79 75     89%   82 29.91        
Aug 25 05:53 E 3 10 Partly Cloudy SCT012 78 76     93%   80 29.89 29.9      
Aug 25 05:45 Calm 10 Partly Cloudy SCT012 78 76     93%   80 29.89        
Aug 25 05:36 E 3 10 Mostly Cloudy BKN012 78 76     93%   80 29.89        
Aug 25 04:53 E 3 10 Clear CLR 79 76     90%   83 29.89 29.89      
Aug 25 03:53 ENE 3 10 Clear CLR 79 76     90%   83 29.89 29.89      
Aug 25 02:53 ENE 5 10 Clear CLR 80 77     90%   86 29.9 29.9      
Aug 25 01:53 ENE 6 10 Clear CLR 81 77     88%   88 29.91 29.91      
Aug 25 00:53 ENE 7 10 Partly Cloudy SCT080 82 77     85%   90 29.92 29.93      
Aug 24 23:53 ENE 7 10 Clear CLR 82 76     82%   89 29.92 29.93      
Aug 24 22:53 Calm 10 Clear CLR 83 77     82%   92 29.94 29.94      
Aug 24 21:53 E 8 10 Mostly Cloudy SCT023 BKN047 84 76     77%   93 29.92 29.92      
Aug 24 21:16 E 8 10 Mostly Cloudy BKN044 BKN070 84 77     80%   94 29.91        
Aug 24 21:06 E 6 10 Mostly Cloudy FEW040 SCT047 BKN065 84 77     80%   94 29.91        
Aug 24 20:53 ESE 6 10 Thunderstorms SCT047 OVC070 85 77     77%   95 29.91 29.91      
Aug 24 20:51 E 6 10 Thunderstorms SCT047 OVC065 84 77     79%   94 29.9        
Aug 24 20:24 E 7 10 Cloudy SCT039 BKN048 OVC070 85 77     77%   95 29.89        
Aug 24 19:53 NE 8 10 Mostly Cloudy SCT038 BKN049 88 77     70%   100 29.88 29.88 0   0
Aug 24 19:39 NNE 8 10 Partly Cloudy SCT047 88 76     68%   99 29.87   0    
Aug 24 19:23 NE 3 10 Partly Cloudy SCT046 88 78     73%   102 29.87   0    
Aug 24 19:08 3 10 Partly Cloudy FEW042 SCT065 SCT090 88 78     73%   102 29.87   0    
Aug 24 18:57 Calm 8 Light Rain FEW037 BKN065 OVC090 86 78     77%   98 29.86   0    
Aug 24 18:53 Calm 4 Light Rain FEW039 BKN065 OVC090 85 78     80%   97 29.86 29.86 0    
Aug 24 17:53 NNW 8 10 Clear CLR 90 76     64%   102 29.86 29.86      
Aug 24 16:53 WNW 8 10 Clear CLR 88 76     68%   99 29.87 29.87   0  
Aug 24 15:53 NNW 7 10 Clear CLR 91 77     64%   105 29.89 29.89 0    
Aug 24 14:53 NNW 7 10 Partly Cloudy FEW033 FEW075 SCT095 91 77     64%   105 29.9 29.91 0    
Aug 24 13:53 ENE 7 10 Cloudy FEW031 BKN043 OVC080 88 76     68%   99 29.93 29.93      
Aug 24 12:53 N 11 10 Mostly Cloudy FEW027 BKN070 89 75     63%   99 29.93 29.93      
Aug 24 11:53 N 9 10 Mostly Cloudy FEW024 SCT029 BKN044 88 76     68%   99 29.95 29.95      
Aug 24 11:48 7 10 Mostly Cloudy SCT024 SCT030 BKN037 88 75     66%   98 29.95        
Aug 24 11:40 N 9 10 Mostly Cloudy BKN024 BKN030 BKN038 87 76     70%   98 29.96        
Aug 24 11:00 NNE 7 10 Mostly Clear FEW020 86 76     72%   96 29.96        
Aug 24 10:53 NE 7 10 Mostly Cloudy SCT018 BKN023 85 76     75%   94 29.96 29.96      
Aug 24 10:32 NNE 9 10 Mostly Cloudy BKN017 86 76     72%   96 29.95        
Aug 24 10:00 NNE 7 10 Mostly Cloudy BKN014 85 76     75%   94 29.95        
Aug 24 09:53 NNE 6 10 Mostly Cloudy BKN009 83 76     79%   91 29.95 29.95      
Aug 24 09:44 NNE 7 10 Mostly Cloudy BKN009 83 76     79%   91 29.95        
Aug 24 08:53 NNW 8 10 Mostly Clear FEW007 81 76     85%   87 29.93 29.94      
Aug 24 08:46 NNW 6 10 Mostly Clear FEW007 81 76     85%   87 29.93        
Aug 24 08:11 NNW 7 10 Partly Cloudy SCT029 80 76     87%   85 29.93        
Aug 24 07:53 NNW 6 10 Cloudy FEW013 OVC029 79 76     90%   83 29.93 29.93      
Aug 24 07:25 N 3 10 Mostly Cloudy FEW013 SCT018 BKN024 78 75     90%   80 29.92        
Aug 24 06:53 Calm 10 Clear CLR 77 75     94%   79 29.91 29.92      
Aug 24 05:53 ENE 6 10 Clear CLR 77 75     94%   79 29.92 29.92      
Aug 24 04:53 NNE 5 10 Clear CLR 78 75     90%   80 29.89 29.9      
Aug 24 03:53 NNE 3 10 Clear CLR 78 75     90%   80 29.91 29.91      
Aug 24 02:53 NE 3 10 Clear CLR 78 75     90%   80 29.91 29.92      
Aug 24 01:53 ENE 5 10 Mostly Clear FEW018 79 75     88%   83 29.93 29.93      
Aug 24 00:53 ENE 6 10 Clear CLR 80 75     85%   85 29.94 29.95      
Aug 23 23:53 NE 8 10 Clear CLR 80 75     85%   85 29.94 29.94      
Aug 23 22:53 NE 6 10 Clear CLR 81 76     85%   87 29.94 29.95      
Aug 23 21:53 NE 6 10 Clear CLR 82 75     79%   89 29.94 29.94      
Aug 23 20:53 NE 6 10 Mostly Cloudy BKN034 83 74     74%   89 29.92 29.93      
Aug 23 19:53 ENE 8 10 Clear CLR 85 76     75%   94 29.91 29.91      
Aug 23 18:53 NE 8 10 Clear CLR 86 74     67%   94 29.9 29.9      
Aug 23 17:53 ENE 5 10 Clear CLR 86 75     70%   95 29.91 29.91      
Aug 23 16:53 NNE 15 10 Mostly Cloudy BKN070 BKN100 86 73     65%   93 29.92 29.92      
Aug 23 15:53 NE 13 10 Mostly Clear FEW120 89 74     61%   98 29.91 29.92      
Aug 23 14:53 NE 13 10 Mostly Cloudy BKN038 BKN048 BKN070 89 76     65%   100 29.93 29.93      
Aug 23 14:41 NE 14 10 Cloudy BKN038 OVC048 86 75     70%   95 29.93        
Aug 23 14:10 NE 9 10 Partly Cloudy FEW043 SCT090 91 75     60%   102 29.94        
Aug 23 13:53 NE 9 10 Partly Cloudy FEW032 SCT040 90 75     62%   101 29.94 29.94      
Aug 23 12:53 NNE 13 10 Mostly Cloudy SCT032 SCT042 BKN050 89 74     61%   98 29.95 29.96      
Aug 23 11:53 7 10 Partly Cloudy SCT027 SCT033 SCT042 88 75     66%   98 29.98 29.98      
Aug 23 11:51 N 5 10 Partly Cloudy SCT027 SCT033 SCT042 88 75     66%   98 29.98        
Aug 23 11:36 NNE 9 10 Mostly Cloudy BKN027 87 75     68%   97 29.99        
Aug 23 10:53 NNE 9 10 Partly Cloudy SCT024 SCT043 85 75     72%   93 29.99 30      
Aug 23 10:29 NNE 9 10 Mostly Cloudy SCT022 BKN029 84 75     74%   92 29.99        
Aug 23 09:53 NE 9 10 Mostly Clear FEW020 83 75     77%   90 29.99 29.99      
Aug 23 08:53 NNE 8 10 Clear CLR 82 76     82%   89 29.99 29.99      
Aug 23 07:53 NNE 8 10 Clear CLR 79 75     88%   83 29.98 29.98      
Aug 23 06:53 NNE 6 10 Clear CLR 77 75     94%   79 29.96 29.97      
Aug 23 05:53 NNE 3 10 Clear CLR 77 75     94%   79 29.96 29.96      
Aug 23 04:53 NE 6 10 Clear CLR 77 75     94%   79 29.95 29.95      
Aug 23 03:53 NE 6 10 Clear CLR 78 75     90%   80 29.95 29.96      
Aug 23 02:53 NE 3 10 Clear CLR 78 75     90%   80 29.97 29.97      
Aug 23 01:53 N 3 10 Clear CLR 78 75     90%   80 29.98 29.98      
Aug 22 23:53 Calm 10 Clear CLR 79 75     88%   83 30.01 30.01      
May 14 11:53 SSW 6 5 Light Rain and Fog/Mist SCT100 OVC120 75 72     90%   76 29.93 29.94 0    
May 14 05:53 SE 5 8 Light Rain SCT006 BKN011 OVC030 71 70     96%   72 29.93 29.93 0    
May 13 13:07 E 8 9 Clear   75 71     88%   76 30.03   0    
Notice The following observation data may not be complete
May 12 19:53   10 Clear CLR          %              
May 12 16:53 ENE 13 10 Clear CLR 83 63     51%   84 30.04 30.04      
May 12 12:53 NE 7 8 Cloudy OVC100 81 65     58%   83 30.12 30.12      
May 12 05:53 Calm 7 Clear CLR 72 62     71%   72 30.07 30.07 0    
May 12 02:53 Calm 7 Clear CLR 74 60     62%   74 30.07 30.07      
May 12 01:53 Calm 6 Haze CLR 75 58     55%   75 30.08 30.09      
May 12 00:53 S 3 7 Clear CLR 77 57     50%   77 30.1 30.11      
Jun 11 18:29 E 11 9 Clear   76 72     88%   77 30.07   0    
Jun 11 17:32 3 6 Cloudy SCT048 BKN090 OVC110 83 75     77%   90 30.05   0    
Jun 11 15:53 SE 9 10 Clear   90 77     66%   103 30.07 30.08      
Jun 11 06:44 E 5 6 Fog/Mist SCT005 77 77     100%   79 30.08        
Jun 10 22:53 E 5 10 Clear   75 75     100%   77 30.08 30.08      
Jun 10 00:18 Calm 10 Light Rain BKN024 OVC034 79 76     90%   83 29.96   0    
Jun 09 21:53 SSW 3 10 Clear CLR 82 71     69%   86 29.94 29.95      
Jun 09 07:53 ENE 9 8 Mostly Cloudy BKN006 75 74     96%   77 29.9 29.91      
Notice The following observation data may not be complete
Jun 06 14:53     Clear            %     29.77 29.78 0    
Notice The following observation data may not be complete
Jun 06 13:43   10 Cloudy FEW011 OVC017          %         0    
Jun 05 16:53 NNW 7 10 Cloudy FEW010 BKN041 OVC110 76 75     97%   78 29.9 29.91 0 0